Molokai, HI

12:18 AM HST on November 21, 2017 (GMT -1000)
Molokai

Weather History for PHMK - March, 2014

Change the Weather History Date:

Saturday, March 8, 2014

  Actual Average Record
Temperature  
Mean Temperature 70 °F -  
Max Temperature 75 °F 78 °F 85 °F (1986)
Min Temperature 64 °F 64 °F 52 °F (1987)
Cooling Degree Days 4    
Growing Degree Days 20 (Base 50)    
Moisture  
Dew Point 68 °F    
Average Humidity 97    
Maximum Humidity 100    
Minimum Humidity 79    
Precipitation  
Precipitation 0.20 in - - ()
Sea Level Pressure  
Sea Level Pressure 30.04 in    
Wind  
Wind Speed 5 mph (NNE)    
Max Wind Speed 16 mph    
Max Gust Speed 23 mph    
Visibility 8 miles    
Events Rain    
Averages and records for this station are not official NWS values.
T = Trace of Precipitation, MM = Missing Value Source: NWS Daily Summary

Daily Weather History Graph

Daily Weather History Graph

Search for Another Location

Airport or City:

Trip Planner

Search our weather history database for the weather conditions in past years. The results will help you decide how hot, cold, wet, or windy it might be!

Date:

Astronomy

Mar. 08, 2014 Rise Set
Actual Time 6:42 AM HST 6:35 PM HST
Civil Twilight 6:20 AM HST 6:57 PM HST
Nautical Twilight 5:54 AM HST 7:23 PM HST
Astronomical Twilight 5:29 AM HST 7:49 PM HST
Moon 12:19 PM HST (3/8) 12:57 AM HST (3/8)
Length of Visible Light 12h 37m
Length of Day
11h 52m
First Quarter, 53% of the Moon is Illuminated
Mar 8
First Quarter
Mar 16
Full
Mar 23
Last Quarter
Mar 30
New
Apr 6
First Quarter

Hourly Weather History & Observations

Time (HST) Temp. Dew Point Humidity Pressure Visibility Wind Dir Wind Speed Gust Speed Precip Events Conditions
12:54 AM 66.0 °F 66.0 °F 100% 30.04 in 10.0 mi Calm Calm - 0.04 in Rain Light Rain
1:54 AM 66.0 °F 66.0 °F 100% 30.03 in 8.0 mi Calm Calm - 0.01 in Rain Light Rain
2:54 AM 66.0 °F 66.0 °F 100% 30.02 in 5.0 mi Calm Calm - 0.03 in Rain Light Rain
3:25 AM 66.2 °F 66.2 °F 100% 30.00 in 6.0 mi Calm Calm - 0.02 in Rain Light Rain
3:51 AM 66.2 °F 66.2 °F 100% 29.97 in 6.0 mi Calm Calm - 0.04 in Rain Light Rain
3:54 AM 66.0 °F 66.0 °F 100% 29.99 in 7.0 mi Calm Calm - 0.04 in Rain Light Rain
4:06 AM 66.2 °F 66.2 °F 100% 29.99 in 9.0 mi Calm Calm - 0.01 in Rain Light Rain
4:22 AM 66.2 °F 66.2 °F 100% 29.99 in 7.0 mi West 3.5 mph - 0.01 in Rain Light Rain
4:44 AM 66.2 °F 66.2 °F 100% 30.01 in 8.0 mi West 3.5 mph - 0.02 in   Scattered Clouds
4:54 AM 66.0 °F 66.0 °F 100% 30.02 in 8.0 mi Calm Calm - 0.02 in   Scattered Clouds
5:01 AM 66.2 °F 66.2 °F 100% 30.01 in 9.0 mi NW 3.5 mph - N/A   Mostly Cloudy
5:30 AM 66.2 °F 66.2 °F 100% 30.00 in 10.0 mi ENE 3.5 mph - N/A   Overcast
5:54 AM 66.0 °F 66.0 °F 100% 30.02 in 8.0 mi Calm Calm - 0.00 in Rain Light Rain
6:54 AM 64.9 °F 64.9 °F 100% 30.03 in 10.0 mi North 4.6 mph - 0.03 in Rain Light Rain
7:08 AM 66.2 °F 66.2 °F 100% 30.04 in 9.0 mi WNW 5.8 mph - 0.00 in Rain Light Rain
7:54 AM 66.9 °F 66.9 °F 100% 30.05 in 5.0 mi NNE 5.8 mph - 0.00 in   Mostly Cloudy
8:54 AM 69.1 °F 69.1 °F 100% 30.10 in 7.0 mi NNW 5.8 mph - 0.00 in   Mostly Cloudy
9:54 AM 71.1 °F 69.1 °F 93% 30.10 in 10.0 mi North 5.8 mph - N/A   Scattered Clouds
10:54 AM 73.0 °F 69.1 °F 87% 30.09 in 10.0 mi NNE 9.2 mph - N/A   Scattered Clouds
11:54 AM 75.0 °F 68.0 °F 79% 30.06 in 10.0 mi NNE 10.4 mph 17.3 mph N/A   Mostly Cloudy
12:54 PM 73.9 °F 68.0 °F 82% 30.05 in 10.0 mi NNE 9.2 mph - N/A   Mostly Cloudy
1:54 PM 75.0 °F 68.0 °F 79% 30.04 in 10.0 mi NE 10.4 mph - N/A   Mostly Cloudy
2:54 PM 73.0 °F 69.1 °F 87% 30.03 in 10.0 mi NNE 9.2 mph - N/A   Mostly Cloudy
3:20 PM 73.4 °F 71.6 °F 94% 30.01 in 9.0 mi NNE 9.2 mph - 0.00 in Rain Light Rain
3:27 PM 73.4 °F 71.6 °F 94% 30.01 in 7.0 mi NNE 11.5 mph - 0.00 in Rain Light Rain
3:54 PM 72.0 °F 70.0 °F 93% 30.03 in 10.0 mi NNE 11.5 mph 18.4 mph 0.00 in   Mostly Cloudy
4:42 PM 71.6 °F 69.8 °F 94% 30.02 in 5.0 mi North 13.8 mph 19.6 mph 0.01 in Rain Light Rain
4:49 PM 71.6 °F 69.8 °F 94% 30.02 in 6.0 mi North 13.8 mph 19.6 mph 0.01 in Rain Light Rain
4:54 PM 73.0 °F 71.1 °F 93% 30.04 in 6.0 mi North 13.8 mph 20.7 mph 0.01 in Rain Light Rain
5:18 PM 69.8 °F 69.8 °F 100% 30.03 in 3.0 mi NNE 10.4 mph 17.3 mph 0.00 in Rain Light Rain
5:25 PM 69.8 °F 69.8 °F 100% 30.03 in 4.0 mi NNE 10.4 mph 17.3 mph 0.00 in Rain Light Rain
5:41 PM 69.8 °F 69.8 °F 100% 30.03 in 6.0 mi NNE 10.4 mph - 0.01 in Rain Light Rain
5:54 PM 70.0 °F 70.0 °F 100% 30.06 in 4.0 mi NNE 8.1 mph 17.3 mph 0.01 in Rain Light Rain
6:09 PM 69.8 °F 69.8 °F 100% 30.04 in 6.0 mi NNE 10.4 mph 18.4 mph 0.00 in Rain Light Rain
6:24 PM 69.8 °F 69.8 °F 100% 30.04 in 6.0 mi NNE 10.4 mph 18.4 mph 0.00 in Rain Light Rain
6:54 PM 70.0 °F 70.0 °F 100% 30.07 in 9.0 mi NNE 8.1 mph 16.1 mph 0.00 in Rain Light Rain
7:22 PM 69.8 °F 69.8 °F 100% 30.07 in 10.0 mi NNE 6.9 mph - 0.00 in   Scattered Clouds
7:54 PM 69.1 °F 69.1 °F 100% 30.09 in 10.0 mi NE 8.1 mph 16.1 mph 0.01 in Rain Light Rain
8:54 PM 70.0 °F 70.0 °F 100% 30.11 in 10.0 mi NE 11.5 mph 17.3 mph 0.00 in   Mostly Cloudy
9:54 PM 69.1 °F 69.1 °F 100% 30.11 in 10.0 mi NE 13.8 mph 21.9 mph N/A   Scattered Clouds
10:54 PM 69.1 °F 69.1 °F 100% 30.12 in 10.0 mi NNE 11.5 mph - N/A   Scattered Clouds
11:27 PM 69.8 °F 69.8 °F 100% 30.09 in 9.0 mi NNE 9.2 mph 19.6 mph 0.00 in   Overcast
11:36 PM 69.8 °F 69.8 °F 100% 30.09 in 9.0 mi NNE 16.1 mph 23.0 mph 0.00 in Rain Light Rain
11:54 PM 69.1 °F 69.1 °F 100% 30.11 in 10.0 mi NE 8.1 mph 16.1 mph 0.00 in   Mostly Cloudy